GEFSNE_prec_meanprecacc_048.txt.gz
Total_Precipitation_Accumulation
1.11 1.09 0.95 0.85 0.83 0.86 0.94 0.97 0.86 0.68 0.62 0.60 0.49 0.36 0.31 0.27 0.20 0.20 0.28 0.22 0.13 0.10 0.08 0.07 0.09 0.11 0.15 0.24 0.35 0.46 0.52 0.58 0.61 0.62 0.61 0.61 0.61 0.62
0.98 0.98 0.95 0.92 0.92 0.88 0.93 0.97 0.93 0.77 0.56 0.61 0.58 0.39 0.37 0.22 0.19 0.20 0.23 0.20 0.14 0.10 0.07 0.07 0.08 0.09 0.11 0.15 0.21 0.29 0.37 0.42 0.48 0.52 0.50 0.47 0.45 0.47
0.70 0.69 0.67 0.68 0.70 0.70 0.71 0.73 0.79 0.77 0.59 0.62 0.78 0.62 0.51 0.36 0.29 0.30 0.22 0.18 0.19 0.13 0.09 0.08 0.08 0.10 0.14 0.14 0.16 0.20 0.25 0.28 0.31 0.39 0.44 0.44 0.42 0.41
0.60 0.54 0.48 0.49 0.54 0.52 0.53 0.57 0.65 0.74 0.69 0.61 0.70 0.74 0.64 0.46 0.40 0.39 0.29 0.20 0.23 0.20 0.13 0.10 0.09 0.10 0.15 0.17 0.16 0.16 0.18 0.20 0.22 0.26 0.32 0.37 0.39 0.41
0.43 0.36 0.32 0.33 0.39 0.41 0.44 0.47 0.51 0.67 0.68 0.62 0.64 0.76 0.71 0.57 0.57 0.49 0.46 0.48 0.35 0.29 0.19 0.13 0.14 0.15 0.17 0.21 0.20 0.20 0.19 0.20 0.21 0.25 0.30 0.35 0.40 0.43
0.35 0.26 0.21 0.23 0.29 0.34 0.38 0.41 0.43 0.46 0.53 0.58 0.60 0.69 0.68 0.56 0.67 0.65 0.60 0.60 0.55 0.44 0.36 0.22 0.17 0.20 0.22 0.22 0.24 0.27 0.29 0.29 0.30 0.34 0.36 0.40 0.45 0.49
0.28 0.21 0.19 0.18 0.20 0.22 0.26 0.33 0.36 0.38 0.40 0.47 0.54 0.60 0.68 0.59 0.54 0.61 0.64 0.65 0.67 0.71 0.74 0.51 0.29 0.25 0.26 0.27 0.29 0.35 0.43 0.46 0.47 0.51 0.56 0.58 0.61 0.64
0.19 0.15 0.14 0.14 0.15 0.17 0.18 0.17 0.17 0.20 0.26 0.34 0.39 0.45 0.54 0.59 0.52 0.55 0.63 0.66 0.70 0.75 0.89 0.96 0.72 0.53 0.45 0.30 0.27 0.33 0.45 0.56 0.60 0.65 0.72 0.81 0.88 0.87
0.12 0.09 0.07 0.07 0.08 0.07 0.08 0.08 0.10 0.08 0.09 0.18 0.19 0.18 0.23 0.28 0.36 0.51 0.67 0.73 0.83 0.96 0.99 1.13 1.28 1.11 0.76 0.50 0.38 0.30 0.37 0.49 0.57 0.64 0.73 0.78 0.91 1.06
0.11 0.08 0.05 0.04 0.04 0.04 0.05 0.08 0.07 0.03 0.02 0.03 0.03 0.03 0.04 0.07 0.11 0.19 0.40 0.69 0.84 0.99 1.09 1.27 1.47 1.74 1.39 0.91 0.67 0.48 0.45 0.48 0.55 0.60 0.68 0.77 0.82 0.92
0.09 0.08 0.06 0.03 0.02 0.02 0.03 0.05 0.04 0.02 0.01 0.01 0.01 0.00 0.01 0.01 0.03 0.09 0.15 0.26 0.50 0.88 1.13 1.35 1.50 1.69 2.04 1.69 1.06 0.66 0.48 0.44 0.48 0.55 0.60 0.69 0.74 0.77
0.07 0.05 0.04 0.03 0.02 0.01 0.02 0.02 0.02 0.01 0.01 0.01 0.02 0.02 0.01 0.01 0.01 0.03 0.06 0.11 0.21 0.43 0.69 0.85 1.01 1.22 1.72 2.09 1.79 1.21 0.79 0.57 0.45 0.46 0.50 0.59 0.69 0.67
0.05 0.05 0.03 0.02 0.01 0.01 0.01 0.01 0.00 0.00 0.00 0.00 0.01 0.02 0.03 0.02 0.01 0.02 0.05 0.11 0.16 0.19 0.25 0.42 0.68 0.85 1.04 1.47 1.73 1.68 1.34 1.04 0.82 0.65 0.58 0.58 0.64 0.70
0.03 0.03 0.02 0.01 0.01 0.00 0.00 0.00 0.00 0.00 0.00 0.01 0.01 0.01 0.01 0.01 0.02 0.02 0.05 0.08 0.11 0.17 0.22 0.32 0.58 0.73 0.89 1.12 1.32 1.44 1.46 1.36 1.22 1.09 0.98 0.91 0.82 0.80
0.02 0.02 0.01 0.01 0.00 0.00 0.00 0.00 0.00 0.00 0.00 0.00 0.01 0.01 0.01 0.01 0.01 0.02 0.03 0.04 0.05 0.04 0.05 0.13 0.26 0.37 0.56 0.83 0.99 1.03 1.10 1.20 1.25 1.24 1.24 1.20 1.12 1.03
0.01 0.01 0.00 0.00 0.00 0.00 0.00 0.00 0.00 0.00 0.00 0.00 0.01 0.01 0.01 0.00 0.01 0.01 0.02 0.03 0.05 0.05 0.04 0.05 0.09 0.16 0.26 0.37 0.46 0.51 0.59 0.73 0.90 1.01 1.16 1.33 1.38 1.37
0.01 0.01 0.01 0.01 0.00 0.00 0.00 0.00 0.00 0.00 0.00 0.00 0.00 0.01 0.00 0.01 0.01 0.01 0.02 0.02 0.03 0.04 0.05 0.04 0.05 0.09 0.14 0.23 0.31 0.35 0.39 0.41 0.49 0.66 0.88 1.16 1.26 1.15
0.00 0.00 0.01 0.01 0.00 0.01 0.01 0.00 0.00 0.00 0.00 0.00 0.00 0.00 0.00 0.01 0.02 0.02 0.01 0.02 0.02 0.03 0.05 0.06 0.06 0.10 0.17 0.18 0.14 0.21 0.32 0.36 0.39 0.46 0.55 0.67 0.76 0.71
0.00 0.00 0.00 0.00 0.00 0.00 0.01 0.01 0.01 0.00 0.00 0.00 0.00 0.01 0.01 0.01 0.01 0.02 0.03 0.03 0.03 0.04 0.07 0.09 0.10 0.10 0.15 0.21 0.21 0.10 0.12 0.21 0.30 0.42 0.47 0.46 0.45 0.39
0.00 0.00 0.00 0.00 0.00 0.00 0.00 0.00 0.00 0.00 0.00 0.00 0.00 0.01 0.01 0.01 0.01 0.01 0.02 0.02 0.03 0.04 0.05 0.07 0.10 0.12 0.13 0.16 0.21 0.23 0.13 0.10 0.16 0.25 0.33 0.35 0.32 0.23
0.00 0.00 0.00 0.00 0.00 0.00 0.00 0.00 0.00 0.00 0.00 0.00 0.00 0.00 0.00 0.01 0.01 0.01 0.01 0.01 0.03 0.04 0.06 0.07 0.08 0.09 0.15 0.21 0.25 0.31 0.29 0.16 0.09 0.10 0.18 0.26 0.32 0.31
0.00 0.00 0.00 0.00 0.00 0.00 0.00 0.00 0.00 0.00 0.00 0.00 0.00 0.00 0.00 0.00 0.00 0.01 0.01 0.02 0.02 0.02 0.03 0.05 0.06 0.09 0.15 0.23 0.28 0.29 0.30 0.29 0.21 0.12 0.09 0.12 0.19 0.27
0.00 0.00 0.00 0.00 0.00 0.00 0.00 0.00 0.00 0.00 0.00 0.00 0.00 0.00 0.00 0.00 0.00 0.00 0.00 0.01 0.01 0.01 0.02 0.04 0.06 0.10 0.13 0.18 0.24 0.28 0.28 0.27 0.29 0.29 0.23 0.11 0.06 0.07

GEFSNE_prec_meanprecacc_054.txt.gz
Total_Precipitation_Accumulation
1.14 1.14 1.02 0.93 0.94 0.98 1.09 1.14 1.03 0.84 0.77 0.77 0.64 0.50 0.47 0.40 0.29 0.28 0.32 0.23 0.15 0.11 0.09 0.09 0.11 0.14 0.19 0.28 0.40 0.52 0.61 0.67 0.73 0.77 0.80 0.84 0.89 0.94
1.02 1.03 1.02 0.99 1.02 0.98 1.05 1.13 1.12 0.98 0.73 0.77 0.72 0.50 0.49 0.32 0.27 0.28 0.26 0.21 0.15 0.10 0.08 0.08 0.09 0.10 0.13 0.18 0.24 0.34 0.44 0.51 0.61 0.67 0.69 0.70 0.71 0.77
0.75 0.75 0.74 0.76 0.80 0.79 0.83 0.88 0.97 0.97 0.74 0.75 0.90 0.73 0.63 0.47 0.37 0.36 0.25 0.20 0.19 0.14 0.10 0.08 0.08 0.11 0.15 0.16 0.18 0.23 0.28 0.32 0.38 0.48 0.58 0.63 0.65 0.69
0.65 0.62 0.56 0.59 0.65 0.63 0.65 0.70 0.80 0.93 0.84 0.72 0.81 0.84 0.75 0.58 0.50 0.46 0.34 0.24 0.25 0.21 0.13 0.10 0.10 0.11 0.16 0.18 0.18 0.19 0.21 0.25 0.27 0.31 0.39 0.46 0.50 0.55
0.47 0.42 0.39 0.40 0.48 0.51 0.55 0.58 0.63 0.83 0.85 0.76 0.73 0.86 0.81 0.66 0.65 0.56 0.52 0.52 0.37 0.30 0.19 0.14 0.15 0.15 0.17 0.21 0.22 0.22 0.22 0.23 0.24 0.28 0.35 0.41 0.46 0.50
0.38 0.30 0.26 0.30 0.37 0.42 0.46 0.50 0.53 0.59 0.68 0.71 0.71 0.78 0.77 0.65 0.74 0.73 0.68 0.66 0.58 0.45 0.36 0.23 0.18 0.20 0.22 0.23 0.25 0.28 0.30 0.30 0.31 0.35 0.38 0.42 0.48 0.53
0.31 0.25 0.23 0.23 0.25 0.29 0.32 0.39 0.43 0.47 0.50 0.57 0.63 0.69 0.78 0.69 0.63 0.69 0.71 0.71 0.72 0.74 0.76 0.52 0.30 0.26 0.27 0.27 0.29 0.35 0.43 0.46 0.48 0.52 0.56 0.59 0.61 0.65
0.23 0.19 0.18 0.18 0.19 0.21 0.23 0.24 0.25 0.27 0.33 0.42 0.48 0.54 0.64 0.68 0.62 0.63 0.68 0.70 0.75 0.80 0.93 0.99 0.75 0.56 0.46 0.31 0.27 0.33 0.45 0.56 0.60 0.66 0.72 0.81 0.88 0.87
0.17 0.14 0.10 0.11 0.12 0.11 0.11 0.12 0.15 0.14 0.16 0.25 0.27 0.26 0.32 0.37 0.45 0.59 0.73 0.78 0.86 0.99 1.03 1.17 1.31 1.13 0.76 0.50 0.38 0.30 0.37 0.49 0.57 0.64 0.73 0.78 0.91 1.06
0.16 0.12 0.08 0.07 0.08 0.07 0.08 0.11 0.09 0.06 0.05 0.07 0.08 0.08 0.11 0.15 0.19 0.26 0.46 0.73 0.86 1.01 1.11 1.30 1.49 1.76 1.40 0.91 0.67 0.48 0.45 0.48 0.55 0.60 0.68 0.77 0.82 0.92
0.17 0.13 0.10 0.08 0.06 0.05 0.06 0.07 0.06 0.04 0.02 0.03 0.04 0.05 0.05 0.06 0.08 0.13 0.19 0.29 0.52 0.89 1.14 1.37 1.52 1.71 2.06 1.70 1.06 0.66 0.48 0.44 0.48 0.55 0.60 0.69 0.74 0.77
0.20 0.14 0.10 0.07 0.05 0.04 0.05 0.04 0.03 0.02 0.01 0.02 0.04 0.04 0.04 0.03 0.03 0.06 0.08 0.12 0.22 0.44 0.70 0.86 1.03 1.23 1.74 2.11 1.81 1.22 0.80 0.57 0.45 0.46 0.50 0.59 0.69 0.68
0.19 0.15 0.11 0.07 0.04 0.02 0.04 0.04 0.02 0.01 0.01 0.01 0.02 0.03 0.04 0.04 0.03 0.03 0.06 0.12 0.16 0.20 0.25 0.42 0.69 0.86 1.06 1.48 1.74 1.69 1.35 1.05 0.83 0.65 0.58 0.58 0.64 0.70
0.19 0.14 0.11 0.07 0.04 0.02 0.02 0.02 0.01 0.01 0.01 0.01 0.01 0.01 0.01 0.02 0.02 0.03 0.05 0.08 0.11 0.17 0.22 0.32 0.59 0.73 0.90 1.13 1.32 1.44 1.47 1.36 1.23 1.11 1.00 0.91 0.83 0.81
0.22 0.14 0.10 0.06 0.03 0.02 0.01 0.01 0.00 0.00 0.01 0.01 0.01 0.01 0.01 0.01 0.01 0.02 0.03 0.04 0.05 0.04 0.05 0.13 0.26 0.37 0.56 0.83 0.99 1.03 1.10 1.20 1.25 1.25 1.25 1.21 1.13 1.04
0.23 0.13 0.08 0.05 0.03 0.02 0.01 0.00 0.00 0.01 0.01 0.01 0.01 0.02 0.01 0.00 0.01 0.01 0.02 0.03 0.05 0.05 0.04 0.05 0.09 0.16 0.26 0.37 0.46 0.51 0.59 0.73 0.90 1.01 1.17 1.34 1.39 1.38
0.20 0.12 0.08 0.04 0.03 0.02 0.01 0.00 0.00 0.00 0.00 0.00 0.01 0.01 0.01 0.01 0.01 0.01 0.02 0.02 0.03 0.04 0.05 0.04 0.05 0.09 0.14 0.23 0.31 0.35 0.39 0.41 0.49 0.66 0.88 1.17 1.27 1.16
0.15 0.09 0.06 0.03 0.02 0.02 0.01 0.01 0.00 0.00 0.00 0.00 0.00 0.00 0.01 0.01 0.02 0.02 0.01 0.02 0.02 0.03 0.05 0.06 0.06 0.10 0.17 0.18 0.14 0.21 0.32 0.36 0.39 0.46 0.55 0.68 0.77 0.71
0.11 0.07 0.04 0.02 0.01 0.01 0.01 0.02 0.01 0.00 0.00 0.00 0.00 0.01 0.01 0.01 0.01 0.02 0.03 0.03 0.03 0.04 0.07 0.09 0.10 0.10 0.15 0.21 0.21 0.10 0.12 0.21 0.30 0.42 0.47 0.46 0.45 0.39
0.08 0.05 0.03 0.01 0.00 0.00 0.00 0.00 0.01 0.00 0.00 0.00 0.00 0.01 0.01 0.01 0.01 0.01 0.02 0.02 0.03 0.04 0.05 0.07 0.10 0.12 0.13 0.16 0.21 0.23 0.13 0.10 0.16 0.25 0.33 0.35 0.32 0.23
0.06 0.05 0.02 0.01 0.00 0.00 0.00 0.00 0.00 0.00 0.00 0.00 0.00 0.00 0.00 0.01 0.01 0.01 0.01 0.01 0.03 0.04 0.06 0.07 0.08 0.09 0.15 0.21 0.25 0.31 0.29 0.16 0.09 0.10 0.18 0.26 0.32 0.31
0.03 0.03 0.02 0.01 0.00 0.00 0.00 0.00 0.00 0.00 0.00 0.00 0.00 0.00 0.00 0.00 0.00 0.01 0.01 0.02 0.02 0.02 0.03 0.05 0.06 0.09 0.15 0.23 0.28 0.29 0.30 0.29 0.21 0.12 0.09 0.12 0.19 0.27
0.02 0.02 0.01 0.00 0.00 0.00 0.00 0.00 0.00 0.00 0.00 0.00 0.00 0.00 0.00 0.00 0.00 0.00 0.00 0.01 0.01 0.01 0.02 0.04 0.06 0.10 0.13 0.18 0.24 0.28 0.28 0.27 0.29 0.29 0.23 0.11 0.06 0.07

GEFSNE_prec_meanprecacc_060.txt.gz
Total_Precipitation_Accumulation
1.14 1.14 1.02 0.93 0.94 0.99 1.11 1.17 1.07 0.88 0.81 0.81 0.69 0.56 0.52 0.46 0.37 0.35 0.36 0.27 0.19 0.14 0.11 0.11 0.14 0.17 0.24 0.34 0.46 0.58 0.66 0.73 0.79 0.83 0.88 0.93 1.00 1.09
1.02 1.03 1.02 0.99 1.02 0.99 1.07 1.15 1.16 1.04 0.79 0.82 0.77 0.57 0.58 0.39 0.34 0.33 0.31 0.25 0.17 0.13 0.09 0.09 0.10 0.13 0.17 0.21 0.29 0.38 0.49 0.58 0.68 0.75 0.78 0.80 0.82 0.89
0.75 0.76 0.75 0.77 0.80 0.80 0.84 0.91 1.00 1.02 0.78 0.79 0.95 0.80 0.72 0.56 0.44 0.40 0.28 0.22 0.22 0.16 0.11 0.08 0.09 0.11 0.16 0.17 0.20 0.25 0.30 0.36 0.43 0.56 0.68 0.76 0.82 0.86
0.66 0.62 0.56 0.59 0.65 0.64 0.66 0.72 0.83 0.97 0.88 0.76 0.85 0.91 0.83 0.67 0.58 0.52 0.38 0.27 0.27 0.23 0.15 0.11 0.10 0.11 0.16 0.19 0.19 0.20 0.23 0.27 0.30 0.36 0.45 0.54 0.64 0.74
0.48 0.43 0.39 0.41 0.48 0.51 0.56 0.61 0.66 0.88 0.90 0.81 0.79 0.93 0.91 0.76 0.75 0.63 0.56 0.55 0.39 0.32 0.21 0.15 0.15 0.16 0.17 0.22 0.22 0.23 0.23 0.24 0.26 0.31 0.38 0.46 0.53 0.58
0.40 0.31 0.27 0.30 0.37 0.43 0.48 0.52 0.55 0.63 0.72 0.76 0.77 0.86 0.87 0.75 0.83 0.80 0.72 0.68 0.59 0.46 0.38 0.24 0.19 0.21 0.23 0.23 0.25 0.29 0.31 0.31 0.33 0.37 0.40 0.45 0.52 0.58
0.33 0.26 0.24 0.24 0.26 0.30 0.34 0.41 0.45 0.49 0.53 0.60 0.67 0.75 0.86 0.77 0.70 0.75 0.76 0.74 0.74 0.75 0.77 0.53 0.31 0.26 0.27 0.28 0.29 0.36 0.44 0.48 0.49 0.53 0.58 0.60 0.64 0.67
0.26 0.21 0.19 0.19 0.20 0.22 0.24 0.25 0.27 0.29 0.35 0.44 0.51 0.59 0.70 0.75 0.69 0.71 0.75 0.74 0.79 0.83 0.94 1.01 0.77 0.57 0.46 0.31 0.27 0.34 0.46 0.56 0.61 0.67 0.73 0.82 0.89 0.89
0.22 0.17 0.12 0.12 0.13 0.11 0.12 0.14 0.17 0.16 0.18 0.28 0.30 0.30 0.37 0.43 0.50 0.65 0.79 0.82 0.90 1.02 1.04 1.19 1.32 1.14 0.77 0.50 0.38 0.31 0.37 0.49 0.57 0.65 0.74 0.79 0.91 1.07
0.24 0.17 0.12 0.09 0.09 0.09 0.10 0.12 0.10 0.07 0.07 0.10 0.11 0.13 0.17 0.21 0.25 0.31 0.51 0.78 0.91 1.05 1.14 1.32 1.50 1.76 1.40 0.91 0.67 0.49 0.45 0.49 0.55 0.61 0.68 0.77 0.82 0.92
0.28 0.23 0.16 0.11 0.08 0.07 0.09 0.09 0.07 0.05 0.05 0.06 0.09 0.10 0.11 0.12 0.13 0.17 0.23 0.34 0.59 0.95 1.17 1.38 1.53 1.71 2.06 1.70 1.06 0.66 0.48 0.44 0.48 0.55 0.60 0.69 0.74 0.77
0.34 0.30 0.22 0.15 0.10 0.08 0.08 0.07 0.05 0.03 0.03 0.04 0.07 0.08 0.08 0.08 0.08 0.10 0.10 0.15 0.26 0.49 0.73 0.87 1.03 1.24 1.75 2.11 1.81 1.22 0.80 0.57 0.45 0.46 0.50 0.59 0.69 0.68
0.36 0.35 0.27 0.19 0.12 0.08 0.08 0.08 0.05 0.03 0.02 0.03 0.04 0.06 0.08 0.09 0.07 0.07 0.09 0.14 0.18 0.22 0.27 0.43 0.69 0.87 1.06 1.48 1.74 1.69 1.35 1.05 0.83 0.65 0.58 0.58 0.64 0.70
0.44 0.39 0.32 0.23 0.15 0.09 0.07 0.07 0.05 0.04 0.03 0.03 0.03 0.04 0.04 0.06 0.07 0.07 0.09 0.11 0.14 0.19 0.23 0.33 0.59 0.74 0.90 1.13 1.33 1.45 1.47 1.36 1.23 1.11 1.00 0.91 0.83 0.81
0.55 0.49 0.41 0.29 0.19 0.13 0.09 0.08 0.05 0.03 0.03 0.03 0.04 0.04 0.03 0.04 0.04 0.05 0.06 0.08 0.08 0.06 0.06 0.14 0.27 0.38 0.56 0.83 1.00 1.03 1.10 1.20 1.25 1.25 1.25 1.21 1.13 1.04
0.61 0.51 0.45 0.36 0.25 0.17 0.12 0.09 0.05 0.03 0.02 0.02 0.03 0.03 0.03 0.03 0.03 0.04 0.05 0.06 0.07 0.07 0.05 0.06 0.09 0.16 0.26 0.37 0.46 0.51 0.59 0.73 0.90 1.01 1.17 1.34 1.39 1.38
0.58 0.49 0.44 0.36 0.26 0.18 0.12 0.08 0.05 0.03 0.03 0.02 0.02 0.02 0.01 0.02 0.02 0.02 0.03 0.03 0.04 0.05 0.05 0.05 0.05 0.09 0.14 0.23 0.31 0.35 0.39 0.42 0.49 0.66 0.88 1.17 1.27 1.16
0.51 0.45 0.40 0.32 0.22 0.15 0.12 0.08 0.05 0.02 0.02 0.02 0.01 0.01 0.01 0.01 0.02 0.02 0.02 0.02 0.03 0.03 0.05 0.06 0.06 0.10 0.17 0.18 0.14 0.21 0.32 0.36 0.39 0.46 0.55 0.68 0.77 0.71
0.43 0.37 0.30 0.26 0.17 0.11 0.10 0.08 0.06 0.03 0.01 0.01 0.01 0.01 0.01 0.01 0.01 0.02 0.03 0.03 0.03 0.04 0.07 0.09 0.10 0.10 0.15 0.21 0.21 0.10 0.12 0.21 0.30 0.42 0.47 0.46 0.45 0.39
0.34 0.29 0.21 0.17 0.13 0.09 0.07 0.06 0.04 0.02 0.01 0.02 0.02 0.01 0.01 0.01 0.01 0.01 0.02 0.02 0.03 0.04 0.05 0.08 0.10 0.12 0.13 0.16 0.21 0.23 0.13 0.10 0.16 0.25 0.33 0.35 0.32 0.23
0.25 0.23 0.16 0.11 0.09 0.06 0.04 0.03 0.03 0.02 0.01 0.01 0.01 0.01 0.01 0.01 0.02 0.02 0.01 0.01 0.03 0.05 0.06 0.07 0.08 0.09 0.15 0.21 0.25 0.31 0.29 0.16 0.09 0.10 0.18 0.26 0.32 0.31
0.16 0.15 0.11 0.07 0.06 0.04 0.02 0.02 0.01 0.01 0.01 0.00 0.01 0.01 0.00 0.00 0.00 0.01 0.01 0.02 0.02 0.02 0.03 0.05 0.06 0.09 0.15 0.23 0.28 0.29 0.30 0.29 0.21 0.12 0.09 0.12 0.19 0.27
0.09 0.08 0.06 0.04 0.03 0.03 0.01 0.01 0.01 0.01 0.00 0.00 0.00 0.00 0.00 0.00 0.00 0.00 0.00 0.01 0.01 0.01 0.02 0.04 0.06 0.10 0.13 0.18 0.24 0.28 0.28 0.27 0.29 0.29 0.23 0.11 0.06 0.07

GEFSNE_prec_meanprecacc_066.txt.gz
Total_Precipitation_Accumulation
1.17 1.16 1.04 0.94 0.95 0.99 1.11 1.17 1.07 0.89 0.81 0.82 0.69 0.56 0.53 0.47 0.39 0.36 0.37 0.29 0.20 0.15 0.12 0.12 0.16 0.19 0.26 0.38 0.53 0.64 0.72 0.78 0.83 0.87 0.92 0.99 1.08 1.20
1.06 1.06 1.04 1.01 1.04 1.00 1.08 1.16 1.17 1.05 0.79 0.82 0.77 0.57 0.59 0.40 0.36 0.34 0.31 0.26 0.18 0.14 0.10 0.10 0.12 0.16 0.19 0.25 0.34 0.46 0.57 0.65 0.73 0.80 0.83 0.86 0.88 0.96
0.79 0.79 0.77 0.79 0.83 0.82 0.86 0.91 1.01 1.03 0.79 0.79 0.95 0.80 0.73 0.58 0.46 0.42 0.29 0.22 0.22 0.17 0.13 0.10 0.10 0.13 0.18 0.20 0.23 0.29 0.37 0.44 0.51 0.64 0.77 0.86 0.91 0.97
0.69 0.65 0.59 0.62 0.67 0.66 0.68 0.73 0.84 0.98 0.89 0.77 0.86 0.91 0.85 0.69 0.60 0.53 0.39 0.27 0.28 0.25 0.16 0.13 0.12 0.13 0.18 0.21 0.21 0.22 0.26 0.31 0.36 0.43 0.54 0.64 0.75 0.86
0.52 0.46 0.42 0.44 0.50 0.53 0.57 0.61 0.67 0.89 0.91 0.82 0.80 0.94 0.93 0.79 0.77 0.64 0.58 0.56 0.40 0.33 0.22 0.16 0.16 0.17 0.19 0.24 0.24 0.24 0.24 0.26 0.29 0.36 0.45 0.54 0.61 0.67
0.41 0.33 0.29 0.33 0.39 0.44 0.49 0.53 0.56 0.64 0.73 0.77 0.79 0.88 0.90 0.78 0.86 0.82 0.74 0.70 0.61 0.47 0.39 0.25 0.20 0.22 0.24 0.25 0.27 0.30 0.32 0.32 0.34 0.40 0.45 0.52 0.58 0.64
0.37 0.28 0.25 0.26 0.28 0.32 0.34 0.41 0.46 0.50 0.54 0.62 0.69 0.77 0.89 0.81 0.74 0.78 0.78 0.76 0.76 0.76 0.78 0.54 0.31 0.26 0.27 0.28 0.31 0.37 0.45 0.48 0.50 0.55 0.60 0.64 0.68 0.72
0.31 0.26 0.22 0.21 0.22 0.24 0.25 0.26 0.27 0.30 0.36 0.46 0.53 0.61 0.72 0.78 0.71 0.73 0.77 0.77 0.81 0.85 0.95 1.02 0.77 0.58 0.47 0.31 0.28 0.35 0.47 0.57 0.62 0.69 0.75 0.84 0.92 0.91
0.24 0.21 0.17 0.15 0.15 0.13 0.13 0.15 0.18 0.17 0.19 0.29 0.32 0.32 0.38 0.44 0.53 0.68 0.82 0.85 0.92 1.03 1.05 1.20 1.33 1.15 0.77 0.51 0.39 0.32 0.39 0.51 0.59 0.66 0.77 0.82 0.94 1.09
0.24 0.20 0.16 0.13 0.13 0.11 0.11 0.14 0.12 0.08 0.08 0.11 0.13 0.15 0.20 0.24 0.28 0.36 0.56 0.82 0.94 1.07 1.14 1.33 1.52 1.77 1.41 0.92 0.68 0.50 0.47 0.51 0.57 0.62 0.69 0.78 0.84 0.94
0.29 0.24 0.20 0.15 0.14 0.12 0.12 0.11 0.09 0.07 0.06 0.09 0.12 0.14 0.17 0.18 0.19 0.23 0.27 0.38 0.64 0.99 1.19 1.39 1.54 1.72 2.07 1.71 1.07 0.67 0.49 0.45 0.49 0.56 0.61 0.70 0.75 0.78
0.35 0.32 0.26 0.19 0.18 0.15 0.13 0.10 0.08 0.05 0.04 0.06 0.11 0.14 0.14 0.16 0.16 0.16 0.15 0.18 0.29 0.53 0.75 0.88 1.05 1.25 1.76 2.12 1.82 1.22 0.80 0.58 0.46 0.46 0.50 0.59 0.70 0.68
0.37 0.37 0.31 0.25 0.20 0.17 0.15 0.13 0.09 0.07 0.06 0.06 0.08 0.12 0.15 0.16 0.14 0.14 0.15 0.17 0.21 0.24 0.29 0.44 0.70 0.87 1.07 1.49 1.75 1.70 1.36 1.06 0.83 0.65 0.58 0.58 0.64 0.70
0.45 0.41 0.36 0.31 0.25 0.19 0.16 0.15 0.14 0.12 0.10 0.09 0.08 0.10 0.12 0.14 0.15 0.14 0.15 0.16 0.18 0.22 0.25 0.34 0.60 0.74 0.90 1.13 1.33 1.45 1.47 1.36 1.23 1.11 1.00 0.92 0.83 0.81
0.56 0.52 0.47 0.39 0.32 0.26 0.21 0.20 0.18 0.15 0.12 0.11 0.10 0.09 0.09 0.10 0.11 0.12 0.12 0.13 0.13 0.10 0.09 0.15 0.27 0.38 0.56 0.83 1.00 1.03 1.10 1.20 1.25 1.25 1.25 1.21 1.13 1.04
0.64 0.56 0.53 0.47 0.40 0.36 0.30 0.26 0.21 0.19 0.16 0.11 0.09 0.09 0.08 0.10 0.11 0.10 0.10 0.11 0.12 0.11 0.09 0.08 0.11 0.17 0.27 0.38 0.47 0.52 0.59 0.73 0.90 1.01 1.17 1.34 1.39 1.38
0.65 0.56 0.53 0.48 0.43 0.41 0.35 0.30 0.25 0.24 0.22 0.15 0.10 0.09 0.08 0.10 0.11 0.09 0.08 0.07 0.07 0.08 0.08 0.07 0.08 0.10 0.15 0.24 0.32 0.36 0.40 0.42 0.49 0.66 0.88 1.17 1.27 1.16
0.60 0.55 0.51 0.47 0.42 0.39 0.37 0.34 0.30 0.26 0.22 0.16 0.10 0.08 0.08 0.08 0.09 0.09 0.07 0.06 0.05 0.05 0.07 0.07 0.07 0.11 0.17 0.19 0.15 0.21 0.32 0.36 0.39 0.46 0.55 0.68 0.77 0.71
0.54 0.50 0.44 0.44 0.43 0.38 0.34 0.32 0.31 0.25 0.20 0.16 0.11 0.09 0.08 0.07 0.06 0.08 0.07 0.06 0.05 0.06 0.08 0.10 0.11 0.11 0.15 0.22 0.21 0.10 0.12 0.21 0.30 0.42 0.47 0.46 0.45 0.39
0.48 0.45 0.38 0.37 0.38 0.37 0.32 0.27 0.27 0.24 0.18 0.15 0.11 0.08 0.07 0.06 0.05 0.04 0.04 0.04 0.04 0.05 0.06 0.08 0.10 0.12 0.13 0.16 0.21 0.23 0.13 0.10 0.16 0.25 0.33 0.35 0.32 0.23
0.41 0.39 0.33 0.30 0.32 0.33 0.29 0.23 0.21 0.19 0.15 0.11 0.09 0.07 0.05 0.04 0.04 0.03 0.03 0.03 0.03 0.05 0.06 0.07 0.08 0.10 0.15 0.21 0.25 0.31 0.29 0.16 0.09 0.10 0.18 0.26 0.32 0.31
0.30 0.31 0.28 0.26 0.27 0.28 0.23 0.18 0.15 0.14 0.11 0.09 0.07 0.06 0.04 0.02 0.01 0.02 0.02 0.03 0.02 0.03 0.04 0.05 0.07 0.09 0.15 0.23 0.28 0.29 0.30 0.29 0.21 0.12 0.09 0.12 0.19 0.27
0.24 0.25 0.23 0.20 0.20 0.20 0.15 0.12 0.11 0.10 0.07 0.06 0.05 0.04 0.03 0.02 0.01 0.01 0.01 0.01 0.02 0.02 0.03 0.04 0.06 0.10 0.13 0.18 0.24 0.28 0.28 0.27 0.29 0.29 0.23 0.11 0.06 0.07